Location: Newark
(35.8833°N, 14.5000°E)
Time: 08:22:12
(UTC+00:00)

UNISAT 6 - Pass Details

Date: 24 May 2019
Orbit: 606 x 690 km, 97.8° (Epoch: 25 June)

Event Time Altitude Azimuth Distance (km) Brightness Sun altitude
Rises 18:51:11 0° 35° (NE) 2,908 ? -8.5°
Reaches altitude 10° 18:54:28 10° 62° (ENE) 1,981 ? -9.1°
Maximum altitude 18:56:37 14° 92° (E) 1,745 ? -9.4°
Enters shadow 18:57:55 12° 111° (ESE) 1,824 ? -9.6°
